Retour au catalogue

FENGYUN 1C DEB

ActifSSO
NORAD 35123·DEBRIS·🇨🇳 China

Lancé May 10, 1999 depuis Taiyuan Satellite Launch Center

Loading…

Prochains Passages (prochaines 24 heures)

TLE

VieillissantSource: Space-Track

Époque: Sep 8, 2026, 11:50 UTC

1 35123U 99025DLB 26251.49371319  .00000549  00000-0  25295-3 0  9996
2 35123  99.1201  89.5477 0049844  24.5868 335.7671 14.24757767649146

Suivez FENGYUN 1C DEB en temps réel avec AllMySat

Download on the App Store